sat.trackr.live / text

‹ back to catalog

STARLINK-32850

NORAD 62950 · 2025-029C

PAYLOAD ACTIVE UNKNOWN

§ Identity

Operator
Country
US
Launch date
2025-02-11
Launch site
AFWTR
Launch vehicle
Mass (kg)
RCS (m²)

Purposes: comms

External: N2YO · Heavens-Above · Gunter

§ Orbital elements

Epoch: 2026-05-24T17:38:07.738656Z

Period
94.01 min
Inclination
53.1589°
Eccentricity
0.0000908
Mean motion
15.31717213 rev/d
Perigee alt
470.1 km
Apogee alt
471.3 km
Semi-major
6,848.8 km
B*
3.8236e-4
RAAN
239.0098°
Arg perigee
84.2545°
Mean anomaly
275.8560°
Rev number
7,297

§ Raw data

STARLINK-328501 62950U 25029C   26144.73481179  .00011525  00000+0  38236-3 0  99952 62950  53.1589 239.0098 0000908  84.2545 275.8560 15.31717213 72970

JSON: /api/v1/satellites/62950 · /tle

For live sub-satellite position, see the globe view (requires WebGL).

§ Visibility from observer

Set your observer location to see the next 7 days of passes ≥ 10°. The values pass through the URL so the page stays shareable.

No JS? Fill the form by hand. The geolocation button needs JavaScript.